星链-31268 (STARLINK-31268 )

导读 | 星芒AI

STARLINK-31268 是 SpaceX Starlink 项目中的一颗低轨通信卫星,属于第三代 Starlink 卫星(v1.5 或 v2 版本)。该卫星于 2023 年发射,旨在为全球提供高速互联网服务,支持偏远地区的网络接入。它运行在约 550 公里的轨道高度,采用先进推进系统和激光通信技术,以提高网络效率和减少延迟。Starlink 卫星群的部署有助于构建全球覆盖的宽带网络,同时推动航天技术和互联网服务的革新。

基本信息
目录编号:
59245
目录名称:
STARLINK-31268
国际标识:
2024-049Q
轨道中心:
EARTH
卫星名称:
星链-31268
卫星全名:
星链-31268 (STARLINK-31268 )
卫星状态:
在轨 (已飞行597 天)
发射日期:
2024-03-16 UTC
国别 :
美国 (US)
星等 :
--
轨道信息
数据来源 国际轨道数据
星历时间: 2025-11-02T14:31:33+0800
20小时前
查看轨道信息
半长轴: 6861.167km
偏心率: 0.0002139
轨道倾角: 43.002°
近地点辐角 263.229°
升交点赤经 139.196°
平近点角 96.832°
近地点: 481.564km
远地点: 484.5km
周期: 94.266分钟
每日圈数: 15.275865
详细信息
固有亮度:
5
最大亮度:
0.3
卫星平台:
Starlink v2.0 mini
覆盖范围:
全球
运营商:
太空探索技术公司
运营商所在国:
美国
制造商(研发单位):
太空探索技术公司
制造商所在国:
美国
使用方式:
暂无
卫星简介
星链(Starlink)计划是由太空探索技术公司(SpaceX)提出的一个巨型低轨卫星互联网星座项目,计划在2019年至2024年间在太空搭建由约1.2万颗卫星组成的“星链”网络,其中1584颗将部署在地球上空550千米处的近地轨道,并从2020年开始工作。该卫星仍在工作。
2D轨道图
3D轨道图
轨道高度分析图
轨道倾角分析图
轨道综合分析图
查看轨道综合分析图